SCP
0 0 0 0 0 0 0 0 0 0 0 0 0 0 0 0 0 0 0 0 0 0 0 0 0 0 0 0 0 0 0 0
0 0 0 0 0 0 0 0 0 0 0 0 0 0 0 0 0 0 0 0 0 0 0 0 0 0 0 0 0 0 0 0
0 0 0 0 0 0 0 0 0 0 0 0 0 0 0 0 0 0 0 0 0 0 0 0 0 0 0 0 0 0 0 0
0 0 0 0 0 0 0 0 0 0 0 0 0 0 0 0 0 0 0 0 0 0 0 0 0 0 0 0 0 0 0 0
0 0 0 0 0 0 0 0 0 0 0 0 0 0 0 0 0 0 0 0 0 0 0 0 0 0 0 0 0 0 0 0
0 0 0 0 0 0 0 0 0 0 0 0 0 0 0 0 0 0 0 0 0 0 0 0 0 0 0 0 0 0 0 0
0 0 0 0 0 0 0 0 0 0 0 0 0 0 0 0 0 0 0 0 0 0 0 0 0 0 0 0 0 0 0 0
0 0 0 0 0 0 0 0 0 0 0 0 0 0 0 0 0 0 0 0 0 0 0 0 0 0 0 0 0 0 0 0
0 0 0 0 0 0 0 0 0 0 0 0 0 0 0 0 0 0 0 0 0 0 0 0 0 0 0 0 0 0 0 0
0 0 0 0 0 0 0 0 0 0 0 0 0 0 0 0 0 0 0 0 0 0 0 0 0 0 0 0 0 0 0 0
0 0 0 0 0 0 0 0 0 0 0 0 0 0 0 0 0 0 0 0 0 0 0 0 0 0 0 0 0 0 0 0
0 0 0 0 0 0 0 0 0 0 0 0 0 0 0 0 0 0 0 0 0 0 0 0 0 0 0 0 0 0 0 0
0 0 0 0 0 0 0 0 0 0 0 0 0 0 0 0 0 0 0 0 0 0 0 0 0 0 0 0 0 0 0 0
0 0 0 0 0 0 0 0 0 0 0 0 0 0 0 0 0 0 0 0 0 0 0 0 0 0 0 0 0 0 0 0
0 0 0 0 0 0 0 0 0 0 0 0 0 0 0 0 0 0 0 0 0 0 0 0 0 0 0 0 0 0 0 0
0 0 0 0 0 0 0 0 0 0 0 0 0 0 0 0 0 0 0 0 0 0 0 0 0 0 0 0 0 0 0 0
0 0 0 0 0 0 0 0 0 0 0 0 0 0 0 0 0 0 0 0 0 0 0 0 0 0 0 0 0 0 0 0
0 0 0 0 0 0 0 0 0 0 0 0 0 0 0 0 0 0 0 0 0 0 0 0 0 0 0 0 0 0 0 0
0 0 0 0 0 0 0 0 0 0 0 0 0 0 0 0 0 0 0 0 0 0 0 0 0 0 0 0 0 0 0 0
0 0 0 0 0 0 0 0 0 0 0 0 0 0 0 0 0 0 0 0 0 0 0 0 0 0 0 0 0 0 0 0
Wind_Speed_500mb
25 32 50 62 70 76 86 92 92 92 91 94 93 94 91 84 82 85 78 72 71 67 62 60 52 51 52 51 49 45 39 33
14 26 35 41 51 65 71 78 87 89 95 97 96 93 90 91 86 87 74 72 78 77 69 65 58 53 52 52 51 47 40 34
24 25 28 29 42 55 60 68 78 87 92 95 96 92 86 86 84 81 75 71 77 80 76 70 60 54 55 56 52 47 41 35
42 41 39 33 29 38 53 64 68 74 76 81 88 83 80 77 75 76 73 71 73 85 71 73 64 59 59 57 51 47 41 37
36 37 44 39 34 32 37 48 58 64 66 69 75 75 74 75 76 75 73 72 81 88 80 78 62 61 61 58 53 48 43 38
43 42 43 43 39 39 36 38 45 52 58 64 66 66 69 71 73 75 74 73 74 81 91 72 66 66 64 59 53 49 44 40
47 52 53 46 40 39 38 38 41 45 52 57 59 62 67 69 69 68 72 73 82 92 79 75 72 69 62 56 54 49 47 42
52 55 57 45 40 35 33 37 39 43 46 53 53 54 58 60 59 60 66 73 84 83 69 71 67 65 61 58 55 51 47 45
51 55 45 38 37 31 32 34 39 41 45 49 51 50 48 49 53 59 65 70 75 71 76 64 66 68 63 59 57 53 49 45
35 34 31 30 29 25 29 32 35 42 44 45 47 46 46 49 52 60 66 72 72 72 72 67 73 69 65 64 59 53 50 47
16 15 15 18 21 20 22 25 32 38 39 42 44 46 46 46 50 53 61 74 76 72 65 71 71 68 65 61 59 56 56 51
13 15 14 13 16 18 19 19 23 30 36 38 43 45 46 47 53 56 60 70 74 70 70 73 72 69 65 61 61 59 55 50
17 16 17 17 15 13 12 14 16 20 27 32 38 44 46 49 57 62 67 73 74 74 73 74 72 69 67 64 59 57 54 48
13 15 15 15 15 15 17 19 20 22 21 25 30 38 44 48 53 61 69 76 78 77 78 79 76 74 71 67 60 57 51 46
13 15 19 19 18 15 14 18 20 22 22 24 27 32 38 46 51 57 67 75 80 82 84 83 80 76 73 67 62 57 53 45
15 17 18 19 20 20 21 22 21 20 21 22 24 28 33 39 47 55 65 72 79 82 84 86 83 75 68 66 66 58 48 40
16 15 16 17 19 20 21 22 23 22 21 22 24 27 31 34 42 52 63 71 76 81 84 81 73 65 62 62 55 52 49 49
11 14 16 17 19 21 22 21 21 21 21 22 23 26 28 32 37 45 50 65 71 81 86 76 67 62 61 59 59 51 54 63
16 16 19 21 23 26 28 29 30 30 28 26 26 28 30 32 34 37 44 52 56 65 70 67 67 67 65 66 66 66 76 76
10 15 18 20 24 26 29 31 33 34 35 34 31 30 30 32 33 35 37 43 47 52 54 62 64 64 70 75 82 82 72 78
Wind_Direction_500mb
273 263 253 248 247 245 244 243 243 242 241 241 242 242 241 239 239 245 251 243 239 240 237 239 238 254 249 240 230 229 229 232
269 270 272 262 255 253 250 248 247 243 241 240 241 241 242 243 242 247 247 242 238 236 234 235 242 250 245 230 224 229 229 233
4 348 341 294 266 255 251 246 245 245 240 239 240 240 239 241 241 245 247 241 238 236 239 232 235 246 232 226 226 228 229 232
335 329 333 327 305 273 259 254 247 241 240 237 240 240 240 240 239 242 241 240 239 233 232 225 236 237 225 222 226 228 231 232
321 319 317 314 305 299 274 259 253 246 243 241 242 244 244 244 242 240 238 236 234 233 231 235 231 230 222 222 224 228 231 233
314 318 313 297 296 290 278 260 250 243 241 247 252 253 252 251 250 247 241 237 228 233 227 233 230 224 220 222 224 228 232 232
308 315 315 300 296 291 278 268 253 246 246 245 249 255 259 257 253 247 238 232 227 220 224 226 226 221 219 223 228 229 230 232
299 304 303 302 298 290 282 270 258 252 250 252 253 255 257 256 251 243 237 233 231 220 225 228 222 221 221 223 226 228 229 231
295 295 291 290 291 277 267 263 257 254 254 255 255 253 251 250 250 242 240 238 220 229 224 224 222 221 223 226 229 228 229 230
297 297 281 278 283 280 273 266 258 257 258 259 259 257 253 247 245 243 241 232 230 226 227 223 221 223 225 227 230 229 229 231
322 324 313 295 292 294 288 284 272 266 266 266 263 262 258 252 250 245 245 233 226 226 228 226 225 228 230 230 231 231 229 228
0 339 326 319 314 310 306 304 288 279 270 264 266 262 257 251 250 247 244 237 230 230 229 227 229 230 233 234 233 233 233 232
24 8 348 335 329 324 319 300 286 276 271 266 264 266 260 253 250 249 244 239 236 234 230 229 231 234 235 236 233 234 234 234
19 9 7 356 343 328 314 301 296 296 290 279 265 259 258 254 251 250 246 242 240 238 234 234 234 234 236 236 234 232 232 234
15 5 353 348 340 327 310 298 291 288 289 293 289 279 267 259 255 250 248 246 244 240 238 237 238 238 238 239 237 231 229 234
16 6 357 345 338 333 325 314 302 297 295 291 287 282 275 267 264 260 259 254 253 251 247 246 245 246 245 242 237 229 231 237
37 27 15 3 353 347 340 334 324 315 311 304 297 294 289 283 274 266 260 254 252 252 251 253 255 253 251 245 230 230 232 252
39 30 24 14 7 1 358 352 341 330 322 312 304 300 297 291 286 280 268 264 259 257 256 254 256 252 247 234 228 237 248 257
56 42 31 22 14 11 7 3 357 350 343 331 321 311 303 296 290 286 284 281 273 265 265 257 251 247 246 231 238 248 251 256
41 24 17 11 8 6 4 1 359 355 351 345 337 327 316 306 300 295 290 286 283 277 261 251 247 245 242 237 243 258 258 270
Wind_Speed_850mb
25 32 50 62 70 76 86 92 92 92 91 94 93 94 91 84 82 85 78 72 71 67 62 60 52 51 52 51 49 45 39 33
14 26 35 41 51 65 71 78 87 89 95 97 96 93 90 91 86 87 74 72 78 77 69 65 58 53 52 52 51 47 40 34
24 25 28 29 42 55 60 68 78 87 92 95 96 92 86 86 84 81 75 71 77 80 76 70 60 54 55 56 52 47 41 35
42 41 39 33 29 38 53 64 68 74 76 81 88 83 80 77 75 76 73 71 73 85 71 73 64 59 59 57 51 47 41 37
36 37 44 39 34 32 37 48 58 64 66 69 75 75 74 75 76 75 73 72 81 88 80 78 62 61 61 58 53 48 43 38
43 42 43 43 39 39 36 38 45 52 58 64 66 66 69 71 73 75 74 73 74 81 91 72 66 66 64 59 53 49 44 40
47 52 53 46 40 39 38 38 41 45 52 57 59 62 67 69 69 68 72 73 82 92 79 75 72 69 62 56 54 49 47 42
52 55 57 45 40 35 33 37 39 43 46 53 53 54 58 60 59 60 66 73 84 83 69 71 67 65 61 58 55 51 47 45
51 55 45 38 37 31 32 34 39 41 45 49 51 50 48 49 53 59 65 70 75 71 76 64 66 68 63 59 57 53 49 45
35 34 31 30 29 25 29 32 35 42 44 45 47 46 46 49 52 60 66 72 72 72 72 67 73 69 65 64 59 53 50 47
16 15 15 18 21 20 22 25 32 38 39 42 44 46 46 46 50 53 61 74 76 72 65 71 71 68 65 61 59 56 56 51
13 15 14 13 16 18 19 19 23 30 36 38 43 45 46 47 53 56 60 70 74 70 70 73 72 69 65 61 61 59 55 50
17 16 17 17 15 13 12 14 16 20 27 32 38 44 46 49 57 62 67 73 74 74 73 74 72 69 67 64 59 57 54 48
13 15 15 15 15 15 17 19 20 22 21 25 30 38 44 48 53 61 69 76 78 77 78 79 76 74 71 67 60 57 51 46
13 15 19 19 18 15 14 18 20 22 22 24 27 32 38 46 51 57 67 75 80 82 84 83 80 76 73 67 62 57 53 45
15 17 18 19 20 20 21 22 21 20 21 22 24 28 33 39 47 55 65 72 79 82 84 86 83 75 68 66 66 58 48 40
16 15 16 17 19 20 21 22 23 22 21 22 24 27 31 34 42 52 63 71 76 81 84 81 73 65 62 62 55 52 49 49
11 14 16 17 19 21 22 21 21 21 21 22 23 26 28 32 37 45 50 65 71 81 86 76 67 62 61 59 59 51 54 63
16 16 19 21 23 26 28 29 30 30 28 26 26 28 30 32 34 37 44 52 56 65 70 67 67 67 65 66 66 66 76 76
10 15 18 20 24 26 29 31 33 34 35 34 31 30 30 32 33 35 37 43 47 52 54 62 64 64 70 75 82 82 72 78
Wind_Direction_850mb
273 263 253 248 247 245 244 243 243 242 241 241 242 242 241 239 239 245 251 243 239 240 237 239 238 254 249 240 230 229 229 232
269 270 272 262 255 253 250 248 247 243 241 240 241 241 242 243 242 247 247 242 238 236 234 235 242 250 245 230 224 229 229 233
4 348 341 294 266 255 251 246 245 245 240 239 240 240 239 241 241 245 247 241 238 236 239 232 235 246 232 226 226 228 229 232
335 329 333 327 305 273 259 254 247 241 240 237 240 240 240 240 239 242 241 240 239 233 232 225 236 237 225 222 226 228 231 232
321 319 317 314 305 299 274 259 253 246 243 241 242 244 244 244 242 240 238 236 234 233 231 235 231 230 222 222 224 228 231 233
314 318 313 297 296 290 278 260 250 243 241 247 252 253 252 251 250 247 241 237 228 233 227 233 230 224 220 222 224 228 232 232
308 315 315 300 296 291 278 268 253 246 246 245 249 255 259 257 253 247 238 232 227 220 224 226 226 221 219 223 228 229 230 232
299 304 303 302 298 290 282 270 258 252 250 252 253 255 257 256 251 243 237 233 231 220 225 228 222 221 221 223 226 228 229 231
295 295 291 290 291 277 267 263 257 254 254 255 255 253 251 250 250 242 240 238 220 229 224 224 222 221 223 226 229 228 229 230
297 297 281 278 283 280 273 266 258 257 258 259 259 257 253 247 245 243 241 232 230 226 227 223 221 223 225 227 230 229 229 231
322 324 313 295 292 294 288 284 272 266 266 266 263 262 258 252 250 245 245 233 226 226 228 226 225 228 230 230 231 231 229 228
0 339 326 319 314 310 306 304 288 279 270 264 266 262 257 251 250 247 244 237 230 230 229 227 229 230 233 234 233 233 233 232
24 8 348 335 329 324 319 300 286 276 271 266 264 266 260 253 250 249 244 239 236 234 230 229 231 234 235 236 233 234 234 234
19 9 7 356 343 328 314 301 296 296 290 279 265 259 258 254 251 250 246 242 240 238 234 234 234 234 236 236 234 232 232 234
15 5 353 348 340 327 310 298 291 288 289 293 289 279 267 259 255 250 248 246 244 240 238 237 238 238 238 239 237 231 229 234
16 6 357 345 338 333 325 314 302 297 295 291 287 282 275 267 264 260 259 254 253 251 247 246 245 246 245 242 237 229 231 237
37 27 15 3 353 347 340 334 324 315 311 304 297 294 289 283 274 266 260 254 252 252 251 253 255 253 251 245 230 230 232 252
39 30 24 14 7 1 358 352 341 330 322 312 304 300 297 291 286 280 268 264 259 257 256 254 256 252 247 234 228 237 248 257
56 42 31 22 14 11 7 3 357 350 343 331 321 311 303 296 290 286 284 281 273 265 265 257 251 247 246 231 238 248 251 256
41 24 17 11 8 6 4 1 359 355 351 345 337 327 316 306 300 295 290 286 283 277 261 251 247 245 242 237 243 258 258 270